QPF
0.00 0.00 0.00 0.00 0.00 0.00 0.00 0.00 0.00 0.00 0.00 0.00 0.00 0.00 0.00 0.00 0.00 0.00 0.00 0.00 0.00 0.00 0.00 0.00 0.00 0.00 0.00 0.00 0.00 0.00 0.00 0.00 0.00 0.00 0.00 0.00 0.00 0.00
0.00 0.00 0.00 0.00 0.00 0.00 0.00 0.00 0.00 0.00 0.00 0.00 0.00 0.00 0.00 0.00 0.00 0.00 0.00 0.00 0.00 0.00 0.00 0.00 0.00 0.00 0.00 0.00 0.00 0.00 0.00 0.00 0.00 0.00 0.00 0.00 0.01 0.01
0.00 0.00 0.00 0.00 0.00 0.00 0.00 0.00 0.00 0.00 0.00 0.00 0.00 0.00 0.00 0.00 0.00 0.00 0.00 0.00 0.00 0.00 0.00 0.00 0.00 0.00 0.00 0.00 0.00 0.00 0.00 0.00 0.00 0.00 0.00 0.00 0.01 0.01
0.00 0.00 0.00 0.00 0.00 0.00 0.00 0.00 0.00 0.00 0.00 0.00 0.00 0.00 0.00 0.00 0.00 0.00 0.00 0.00 0.00 0.00 0.00 0.00 0.00 0.00 0.00 0.00 0.00 0.00 0.00 0.00 0.00 0.00 0.00 0.00 0.00 0.00
0.00 0.00 0.00 0.00 0.00 0.00 0.00 0.00 0.00 0.00 0.00 0.00 0.00 0.00 0.00 0.00 0.00 0.00 0.00 0.00 0.00 0.00 0.00 0.00 0.00 0.00 0.00 0.00 0.00 0.00 0.00 0.00 0.00 0.00 0.00 0.00 0.00 0.00
0.00 0.00 0.00 0.00 0.00 0.00 0.00 0.00 0.00 0.00 0.00 0.00 0.00 0.00 0.00 0.00 0.00 0.00 0.00 0.00 0.00 0.00 0.00 0.00 0.00 0.00 0.00 0.00 0.00 0.00 0.00 0.00 0.00 0.00 0.00 0.00 0.00 0.00
0.00 0.00 0.00 0.00 0.00 0.00 0.00 0.00 0.00 0.00 0.00 0.00 0.00 0.00 0.00 0.00 0.00 0.00 0.00 0.00 0.00 0.00 0.00 0.00 0.00 0.00 0.00 0.00 0.00 0.00 0.00 0.00 0.00 0.00 0.00 0.00 0.00 0.00
0.00 0.00 0.00 0.00 0.00 0.00 0.00 0.00 0.00 0.00 0.00 0.00 0.00 0.00 0.00 0.00 0.00 0.00 0.00 0.00 0.00 0.00 0.00 0.00 0.00 0.00 0.00 0.00 0.00 0.00 0.00 0.00 0.00 0.00 0.00 0.00 0.00 0.00
0.00 0.00 0.00 0.00 0.00 0.00 0.00 0.00 0.00 0.00 0.00 0.00 0.00 0.00 0.00 0.00 0.00 0.00 0.00 0.00 0.00 0.00 0.00 0.00 0.00 0.00 0.00 0.00 0.00 0.00 0.00 0.00 0.00 0.00 0.00 0.00 0.00 0.00
0.00 0.00 0.00 0.00 0.00 0.00 0.00 0.00 0.00 0.00 0.00 0.00 0.00 0.00 0.00 0.00 0.00 0.00 0.01 0.01 0.00 0.00 0.00 0.00 0.00 0.00 0.00 0.00 0.00 0.00 0.00 0.00 0.00 0.00 0.00 0.00 0.00 0.00
0.00 0.00 0.00 0.00 0.00 0.00 0.00 0.00 0.00 0.00 0.00 0.00 0.00 0.00 0.00 0.01 0.02 0.04 0.02 0.02 0.01 0.00 0.00 0.00 0.00 0.00 0.00 0.00 0.00 0.00 0.00 0.00 0.00 0.00 0.01 0.01 0.01 0.01
0.00 0.00 0.00 0.00 0.00 0.00 0.00 0.01 0.01 0.00 0.00 0.00 0.00 0.00 0.00 0.01 0.02 0.02 0.01 0.01 0.00 0.00 0.00 0.00 0.00 0.01 0.00 0.00 0.00 0.00 0.00 0.00 0.00 0.00 0.00 0.00 0.00 0.00
0.00 0.00 0.00 0.00 0.00 0.01 0.02 0.03 0.02 0.01 0.01 0.01 0.01 0.01 0.00 0.00 0.00 0.00 0.00 0.00 0.00 0.00 0.00 0.01 0.01 0.02 0.01 0.01 0.00 0.00 0.00 0.00 0.00 0.00 0.00 0.00 0.00 0.02
0.00 0.00 0.00 0.00 0.01 0.02 0.03 0.04 0.04 0.04 0.03 0.02 0.01 0.01 0.00 0.00 0.00 0.00 0.00 0.00 0.00 0.01 0.00 0.00 0.01 0.01 0.01 0.01 0.00 0.00 0.00 0.00 0.00 0.00 0.00 0.00 0.00 0.00
0.00 0.00 0.01 0.01 0.01 0.01 0.01 0.02 0.01 0.01 0.01 0.00 0.00 0.00 0.00 0.00 0.00 0.00 0.00 0.00 0.00 0.00 0.00 0.00 0.01 0.01 0.01 0.01 0.01 0.00 0.00 0.00 0.00 0.00 0.00 0.00 0.00 0.00
0.01 0.01 0.01 0.00 0.00 0.00 0.01 0.00 0.00 0.00 0.00 0.00 0.00 0.00 0.00 0.00 0.00 0.00 0.00 0.00 0.01 0.00 0.00 0.00 0.00 0.01 0.00 0.01 0.01 0.00 0.00 0.01 0.00 0.00 0.00 0.00 0.00 0.00
0.02 0.00 0.00 0.00 0.00 0.00 0.00 0.00 0.00 0.00 0.00 0.00 0.00 0.00 0.00 0.00 0.00 0.00 0.00 0.01 0.01 0.01 0.00 0.00 0.00 0.00 0.00 0.00 0.00 0.00 0.00 0.01 0.00 0.00 0.00 0.00 0.00 0.00
0.00 0.00 0.00 0.00 0.00 0.00 0.00 0.00 0.00 0.00 0.00 0.00 0.00 0.00 0.00 0.01 0.00 0.00 0.00 0.01 0.01 0.00 0.00 0.00 0.00 0.00 0.00 0.00 0.00 0.00 0.00 0.00 0.00 0.00 0.00 0.00 0.00 0.00
0.00 0.00 0.00 0.00 0.00 0.00 0.00 0.01 0.00 0.00 0.00 0.00 0.01 0.01 0.01 0.01 0.01 0.00 0.00 0.00 0.00 0.00 0.00 0.01 0.00 0.00 0.00 0.00 0.00 0.00 0.00 0.00 0.00 0.00 0.00 0.00 0.00 0.00
0.00 0.00 0.00 0.01 0.01 0.01 0.00 0.00 0.00 0.00 0.00 0.01 0.00 0.00 0.00 0.00 0.00 0.00 0.00 0.00 0.00 0.00 0.00 0.00 0.00 0.00 0.00 0.00 0.00 0.00 0.00 0.00 0.00 0.00 0.00 0.00 0.00 0.00
0.00 0.00 0.00 0.00 0.00 0.00 0.01 0.01 0.00 0.00 0.00 0.00 0.00 0.00 0.00 0.00 0.00 0.00 0.00 0.00 0.00 0.01 0.00 0.00 0.00 0.00 0.00 0.00 0.00 0.00 0.00 0.00 0.00 0.00 0.00 0.00 0.00 0.00
0.00 0.00 0.00 0.00 0.00 0.00 0.00 0.00 0.00 0.00 0.00 0.00 0.00 0.00 0.00 0.00 0.00 0.00 0.00 0.00 0.00 0.00 0.00 0.00 0.00 0.00 0.00 0.00 0.00 0.00 0.00 0.00 0.00 0.00 0.00 0.00 0.00 0.00
0.00 0.00 0.00 0.00 0.00 0.00 0.00 0.00 0.00 0.00 0.00 0.00 0.00 0.00 0.00 0.00 0.00 0.00 0.00 0.00 0.00 0.00 0.00 0.00 0.00 0.00 0.00 0.00 0.00 0.00 0.00 0.00 0.00 0.00 0.00 0.00 0.00 0.00
MSLP
1021.77 1021.75 1021.60 1021.35 1021.31 1021.11 1021.03 1020.92 1020.45 1019.19 1018.32 1017.86 1018.27 1018.29 1018.46 1018.31 1018.10 1017.99 1017.52 1017.16 1017.12 1016.78 1016.48 1016.25 1016.01 1015.61 1015.19 1014.90 1014.75 1014.54 1014.34 1014.08 1013.82 1013.52 1013.49 1013.54 1013.69 1013.77
1021.47 1021.41 1021.25 1021.15 1021.09 1020.97 1020.86 1020.53 1020.35 1019.77 1018.52 1017.94 1017.88 1018.00 1018.16 1017.82 1017.73 1017.63 1017.27 1017.04 1016.66 1016.48 1016.19 1015.90 1015.64 1015.30 1015.00 1014.68 1014.43 1014.29 1014.14 1013.91 1013.68 1013.44 1013.22 1013.16 1013.15 1013.23
1021.12 1021.12 1020.96 1020.77 1020.61 1020.44 1020.37 1020.19 1019.90 1019.47 1018.66 1017.95 1017.71 1017.66 1017.67 1017.49 1017.13 1017.02 1016.85 1016.52 1016.07 1015.93 1015.81 1015.54 1015.31 1015.04 1014.78 1014.52 1014.26 1014.03 1013.91 1013.78 1013.54 1013.37 1013.15 1013.00 1012.83 1012.79
1020.77 1020.64 1020.47 1020.15 1020.03 1019.88 1019.74 1019.42 1019.17 1018.87 1018.55 1017.67 1017.46 1017.25 1017.15 1016.94 1016.73 1016.63 1016.35 1016.01 1015.66 1015.44 1015.34 1015.16 1014.88 1014.64 1014.39 1014.22 1013.96 1013.74 1013.55 1013.48 1013.37 1013.19 1013.02 1012.92 1012.83 1012.73
1020.31 1020.00 1019.69 1019.59 1019.34 1019.08 1019.00 1018.81 1018.57 1018.13 1017.90 1017.49 1016.88 1017.00 1016.72 1016.46 1016.14 1015.92 1015.68 1015.35 1015.21 1015.22 1014.99 1014.64 1014.33 1014.06 1013.93 1013.70 1013.48 1013.30 1013.22 1013.12 1013.10 1013.00 1012.87 1012.76 1012.62 1012.50
1019.87 1019.63 1019.29 1019.10 1018.87 1018.55 1018.26 1017.97 1017.69 1017.45 1017.29 1016.94 1016.42 1016.27 1016.23 1015.96 1015.70 1015.40 1014.89 1014.64 1014.39 1014.23 1014.10 1013.89 1013.71 1013.55 1013.40 1013.18 1012.98 1012.79 1012.68 1012.62 1012.58 1012.56 1012.42 1012.31 1012.23 1012.16
1019.33 1019.00 1018.68 1018.54 1018.43 1018.21 1017.95 1017.36 1017.14 1016.81 1016.65 1016.31 1015.83 1015.72 1015.50 1015.21 1014.76 1014.57 1014.41 1014.17 1013.88 1013.75 1013.54 1013.32 1012.98 1012.76 1012.54 1012.38 1012.16 1012.18 1012.14 1012.09 1011.95 1011.86 1011.68 1011.58 1011.51 1011.47
1018.65 1018.43 1018.17 1017.97 1017.68 1017.48 1017.20 1016.90 1016.72 1016.23 1015.79 1015.57 1015.28 1014.93 1014.63 1014.54 1014.33 1014.16 1013.99 1013.83 1013.30 1013.16 1012.90 1012.81 1012.90 1012.22 1011.98 1011.63 1011.42 1011.53 1011.51 1011.35 1011.24 1011.09 1010.83 1010.73 1010.74 1010.68
1018.51 1018.20 1017.75 1017.41 1017.24 1016.87 1016.41 1016.08 1015.78 1015.61 1015.26 1014.98 1014.45 1014.05 1013.81 1013.78 1013.73 1013.57 1013.52 1013.52 1013.25 1012.83 1012.76 1012.46 1012.19 1011.43 1011.08 1011.05 1010.98 1010.74 1010.61 1010.52 1010.32 1010.17 1010.06 1009.97 1009.94 1009.95
1018.23 1017.84 1017.52 1017.06 1016.76 1016.53 1016.04 1015.48 1014.96 1014.58 1014.28 1014.13 1013.91 1013.56 1013.49 1013.40 1013.34 1013.29 1013.19 1012.99 1012.72 1012.70 1012.73 1011.45 1011.25 1010.57 1010.52 1010.12 1009.91 1009.93 1009.88 1009.76 1009.63 1009.41 1009.26 1009.21 1009.19 1009.19
1017.69 1017.31 1017.13 1016.74 1016.31 1016.10 1015.51 1014.74 1014.11 1013.48 1013.33 1013.36 1013.48 1013.22 1013.06 1013.04 1013.00 1013.00 1012.72 1012.40 1011.78 1011.39 1011.44 1011.08 1010.83 1010.22 1010.01 1009.67 1009.31 1009.23 1009.16 1009.05 1008.91 1008.74 1008.72 1008.62 1008.58 1008.54
1017.14 1016.71 1016.46 1016.19 1015.82 1015.45 1014.92 1014.15 1013.41 1012.83 1012.54 1012.22 1012.01 1012.00 1012.08 1012.01 1012.09 1012.30 1012.26 1011.97 1011.60 1010.74 1010.98 1010.90 1010.58 1010.31 1009.45 1008.96 1008.75 1008.74 1008.78 1008.55 1008.57 1008.45 1008.42 1008.31 1008.17 1007.94
1016.79 1016.17 1015.86 1015.60 1015.27 1014.77 1014.27 1013.70 1013.19 1012.66 1012.24 1011.77 1011.34 1011.18 1011.56 1011.53 1011.60 1011.72 1011.89 1011.82 1011.37 1010.55 1010.59 1010.65 1010.31 1010.00 1009.69 1008.99 1008.67 1008.65 1008.44 1008.18 1008.09 1007.94 1007.68 1007.66 1007.66 1007.47
1016.65 1015.98 1015.41 1015.13 1014.70 1014.06 1013.48 1012.90 1012.52 1012.35 1012.00 1011.73 1011.47 1011.33 1011.30 1011.42 1011.38 1011.33 1011.28 1011.22 1010.99 1010.45 1010.29 1010.37 1009.95 1009.66 1009.24 1008.72 1008.25 1008.00 1007.74 1007.57 1007.56 1007.53 1007.42 1007.07 1007.34 1007.20
1016.41 1015.71 1015.13 1014.81 1014.29 1013.63 1013.08 1012.77 1012.52 1012.21 1011.93 1011.55 1011.28 1011.21 1011.14 1011.17 1011.16 1011.06 1010.81 1010.59 1010.36 1009.95 1009.57 1009.42 1009.29 1009.00 1008.79 1008.22 1007.80 1007.56 1007.23 1006.92 1006.90 1007.00 1006.98 1007.06 1007.05 1006.81
1015.87 1015.37 1014.97 1014.45 1014.01 1013.42 1012.99 1012.56 1012.27 1011.97 1011.64 1011.33 1011.11 1010.89 1010.86 1010.84 1010.62 1010.55 1010.29 1009.99 1009.57 1008.87 1008.46 1008.31 1008.25 1008.18 1007.84 1007.63 1007.43 1007.01 1006.86 1006.72 1006.33 1006.45 1006.57 1006.69 1006.67 1006.46
1015.73 1015.20 1014.56 1014.04 1013.62 1013.32 1013.00 1012.75 1012.47 1012.21 1011.89 1011.55 1011.20 1010.86 1010.63 1010.46 1010.22 1010.02 1009.75 1009.39 1008.87 1008.22 1007.65 1007.32 1007.33 1007.27 1007.14 1007.05 1006.77 1006.55 1006.40 1006.26 1006.04 1006.06 1006.35 1006.26 1006.08 1006.04
1015.49 1014.99 1014.45 1014.23 1013.91 1013.58 1013.21 1012.76 1012.32 1012.02 1011.75 1011.50 1011.21 1010.93 1010.60 1010.25 1009.87 1009.54 1009.26 1008.80 1008.24 1007.70 1007.20 1006.83 1006.60 1006.42 1006.44 1006.26 1006.27 1006.21 1006.17 1006.02 1005.87 1005.97 1006.11 1005.98 1005.78 1005.59
1015.48 1015.05 1014.80 1014.38 1013.96 1013.52 1013.10 1012.66 1012.26 1012.02 1011.70 1011.34 1011.00 1010.64 1010.28 1009.89 1009.52 1009.09 1008.68 1008.27 1007.70 1007.19 1006.72 1006.45 1006.25 1006.11 1005.86 1005.65 1005.89 1006.22 1006.15 1006.02 1006.01 1005.94 1005.87 1005.74 1005.57 1005.44
1015.59 1015.21 1014.77 1014.33 1013.94 1013.53 1013.09 1012.63 1012.19 1011.79 1011.44 1011.06 1010.69 1010.32 1009.94 1009.54 1009.08 1008.64 1008.21 1007.72 1007.20 1006.69 1006.22 1005.98 1006.03 1005.93 1005.86 1005.78 1005.73 1006.04 1006.27 1006.15 1006.04 1005.87 1005.72 1005.53 1005.39 1005.33
1015.52 1015.16 1014.80 1014.42 1013.95 1013.45 1012.91 1012.44 1012.00 1011.52 1011.11 1010.75 1010.38 1009.97 1009.54 1009.15 1008.66 1008.23 1007.73 1007.17 1006.64 1006.15 1005.79 1005.78 1005.99 1006.10 1006.10 1006.13 1005.96 1005.83 1006.03 1006.21 1006.24 1006.07 1005.86 1005.59 1005.21 1004.89
1015.46 1015.05 1014.58 1014.18 1013.71 1013.21 1012.67 1012.17 1011.63 1011.21 1010.80 1010.40 1009.96 1009.56 1009.14 1008.74 1008.24 1007.74 1007.23 1006.68 1006.20 1005.99 1005.95 1006.14 1006.24 1006.19 1006.13 1006.04 1005.91 1005.94 1005.88 1005.83 1005.81 1005.69 1005.65 1005.59 1005.30 1004.80
1015.30 1014.90 1014.39 1013.92 1013.39 1012.89 1012.41 1011.87 1011.40 1010.91 1010.47 1010.03 1009.58 1009.16 1008.77 1008.31 1007.84 1007.32 1006.82 1006.50 1006.31 1006.23 1006.24 1006.24 1006.32 1006.34 1006.31 1006.31 1006.26 1006.01 1005.88 1005.69 1005.46 1005.22 1004.99 1004.99 1004.92 1004.73
Thickness
5479 5471 5462 5455 5447 5439 5431 5424 5420 5426 5431 5428 5415 5411 5406 5405 5405 5403 5407 5410 5411 5415 5418 5421 5425 5430 5436 5441 5446 5453 5459 5466 5473 5481 5488 5492 5496 5500
5464 5454 5445 5436 5428 5420 5414 5410 5406 5405 5413 5412 5408 5401 5396 5396 5394 5393 5393 5396 5399 5401 5404 5407 5410 5415 5420 5427 5431 5435 5442 5448 5455 5463 5471 5477 5483 5487
5446 5436 5427 5420 5414 5408 5402 5398 5395 5393 5397 5401 5396 5391 5389 5387 5387 5385 5385 5386 5388 5389 5389 5392 5396 5401 5405 5410 5415 5419 5424 5430 5437 5443 5451 5459 5466 5472
5429 5420 5414 5408 5402 5396 5392 5389 5385 5383 5382 5386 5385 5382 5380 5378 5378 5376 5376 5378 5380 5380 5380 5381 5383 5386 5391 5394 5399 5404 5408 5413 5419 5426 5432 5441 5446 5453
5415 5409 5403 5395 5391 5386 5380 5377 5374 5373 5369 5370 5374 5369 5368 5366 5367 5367 5368 5369 5370 5369 5370 5373 5374 5377 5379 5382 5385 5390 5393 5397 5404 5408 5415 5421 5429 5436
5402 5394 5389 5382 5377 5373 5369 5365 5362 5359 5355 5354 5356 5356 5353 5352 5351 5353 5357 5357 5359 5360 5361 5361 5363 5366 5367 5370 5374 5376 5380 5384 5388 5393 5399 5405 5411 5418
5389 5383 5377 5369 5362 5355 5350 5351 5345 5342 5338 5337 5338 5335 5337 5336 5338 5338 5340 5342 5344 5344 5346 5348 5352 5355 5356 5358 5361 5363 5367 5371 5376 5380 5386 5392 5396 5402
5379 5371 5363 5356 5350 5342 5335 5330 5326 5322 5321 5317 5316 5315 5317 5316 5316 5317 5319 5320 5327 5327 5331 5333 5331 5340 5341 5344 5346 5348 5350 5356 5361 5367 5374 5379 5383 5388
5359 5352 5347 5340 5332 5326 5321 5314 5307 5298 5294 5291 5291 5294 5292 5293 5292 5296 5298 5298 5303 5309 5308 5316 5316 5325 5326 5326 5329 5331 5335 5337 5344 5352 5358 5364 5369 5373
5342 5335 5327 5322 5312 5302 5296 5291 5287 5281 5275 5268 5264 5268 5266 5268 5268 5270 5274 5278 5285 5288 5283 5300 5301 5311 5308 5313 5314 5314 5314 5320 5326 5331 5337 5344 5351 5356
5331 5321 5309 5300 5292 5284 5277 5273 5269 5263 5250 5243 5237 5240 5243 5246 5248 5247 5253 5260 5273 5280 5275 5279 5282 5289 5290 5293 5295 5295 5296 5299 5305 5313 5317 5322 5326 5332
5319 5307 5295 5285 5278 5270 5260 5253 5247 5241 5233 5232 5233 5233 5233 5236 5237 5236 5239 5245 5253 5265 5259 5259 5263 5265 5275 5277 5279 5279 5278 5280 5285 5291 5295 5299 5303 5309
5301 5294 5285 5275 5267 5259 5250 5239 5231 5227 5225 5226 5230 5231 5226 5227 5229 5229 5229 5231 5238 5248 5247 5245 5250 5252 5253 5260 5263 5262 5264 5266 5271 5275 5280 5283 5285 5290
5282 5278 5274 5265 5258 5251 5243 5234 5229 5222 5219 5219 5221 5221 5221 5220 5222 5222 5223 5224 5227 5235 5236 5234 5239 5241 5244 5248 5252 5254 5257 5259 5261 5264 5267 5271 5271 5274
5270 5267 5261 5253 5248 5244 5235 5227 5222 5218 5215 5216 5216 5215 5215 5215 5214 5215 5218 5220 5223 5227 5230 5231 5233 5236 5239 5243 5246 5248 5252 5255 5257 5258 5259 5260 5261 5266
5265 5259 5251 5246 5240 5236 5229 5223 5219 5216 5215 5213 5212 5211 5210 5210 5211 5211 5214 5217 5221 5228 5233 5234 5235 5236 5239 5240 5242 5245 5247 5247 5251 5252 5252 5252 5254 5257
5255 5249 5244 5239 5234 5228 5223 5215 5211 5208 5207 5206 5206 5207 5207 5207 5209 5211 5214 5218 5223 5229 5235 5238 5238 5237 5237 5236 5239 5242 5244 5245 5247 5247 5246 5247 5250 5251
5246 5240 5236 5229 5224 5220 5216 5213 5211 5208 5206 5205 5205 5205 5206 5208 5211 5214 5216 5221 5226 5231 5236 5239 5240 5242 5240 5241 5239 5240 5240 5242 5244 5244 5243 5243 5245 5248
5236 5231 5223 5219 5216 5214 5213 5211 5211 5209 5208 5207 5206 5207 5209 5211 5214 5217 5221 5225 5230 5235 5239 5240 5240 5241 5245 5246 5241 5237 5238 5239 5239 5240 5241 5242 5242 5244
5227 5222 5218 5215 5211 5209 5208 5208 5209 5209 5209 5210 5210 5211 5213 5215 5219 5222 5226 5229 5233 5237 5241 5242 5241 5241 5242 5244 5243 5238 5234 5235 5236 5237 5239 5240 5241 5242
5223 5218 5214 5211 5210 5209 5209 5209 5210 5212 5213 5214 5215 5217 5219 5221 5224 5227 5230 5235 5239 5243 5246 5245 5241 5238 5237 5236 5238 5239 5234 5230 5230 5231 5233 5236 5239 5243
5220 5217 5214 5212 5212 5212 5213 5214 5215 5217 5219 5220 5222 5223 5225 5227 5230 5233 5237 5241 5245 5245 5245 5241 5239 5239 5239 5239 5240 5237 5236 5234 5231 5231 5232 5232 5236 5241
5219 5218 5216 5215 5216 5217 5219 5220 5221 5223 5225 5226 5228 5230 5231 5234 5236 5240 5243 5244 5244 5243 5242 5241 5239 5238 5237 5235 5235 5236 5235 5235 5235 5236 5237 5235 5235 5237